EHI
0 1 1 1 0 0 0 0 0 0 0 0 0 1 2 2 1 1 2 11 29 38 26 22 31 38 43 45 41 36 30 20 10 5 3 2 1 0 0 0 0 0 0 0 0 0 0 0 0
0 0 0 0 0 0 0 0 0 0 0 0 1 2 3 3 3 3 5 18 37 44 31 26 34 40 43 42 36 29 22 13 6 3 2 1 0 0 0 0 0 0 0 0 0 0 0 0 0
0 0 0 0 0 0 0 0 0 1 2 3 5 4 3 4 5 5 12 30 48 48 35 32 41 46 44 39 30 21 13 7 3 1 1 0 0 0 0 0 0 0 0 0 0 0 0 0 0
0 0 0 0 0 0 0 1 3 4 6 11 13 9 5 5 9 14 26 46 55 48 37 39 51 55 48 37 26 17 10 6 3 1 0 0 0 0 0 0 0 0 0 0 0 0 0 0 0
0 0 0 0 0 0 0 2 6 9 14 22 24 16 9 11 20 31 43 55 59 52 44 48 58 60 49 36 25 16 11 7 4 1 0 0 0 0 0 0 0 0 0 0 0 0 0 0 0
0 0 0 0 0 0 1 4 8 15 25 33 34 25 15 19 33 45 51 55 60 62 58 58 59 56 45 33 25 19 12 7 4 1 0 0 0 0 0 0 0 0 0 0 0 0 0 0 0
0 0 0 0 0 0 0 4 11 21 34 42 43 34 24 27 41 53 57 59 65 71 72 66 58 50 41 30 23 18 12 5 2 0 0 0 0 0 0 0 0 0 0 0 0 0 0 0 0
0 0 0 0 0 0 0 3 11 25 39 49 48 38 32 40 54 63 68 70 72 73 71 67 58 49 39 29 21 15 9 3 1 0 0 0 0 0 0 0 0 0 0 0 0 0 0 0 0
0 0 0 0 0 0 1 4 12 29 46 54 50 42 47 63 73 75 77 77 73 67 63 60 57 51 42 31 21 13 7 2 0 0 0 0 0 0 0 0 0 0 0 0 0 0 0 0 0
0 0 0 0 0 0 1 5 16 34 50 55 55 57 69 81 83 78 77 74 69 63 56 50 50 49 43 34 25 17 9 3 0 0 0 0 0 0 0 0 0 0 0 0 0 0 0 0 0
0 0 0 0 0 0 1 6 19 35 44 50 60 73 84 86 80 74 70 66 63 58 49 41 41 42 40 36 29 20 12 5 1 0 0 0 0 0 0 0 0 0 0 0 0 0 0 0 0
0 0 0 0 0 0 3 9 18 27 32 42 61 78 87 84 73 65 60 56 55 51 44 37 34 35 34 34 29 20 12 6 1 0 0 0 0 0 0 0 0 0 0 0 0 0 0 0 0
0 0 0 0 0 1 6 12 16 19 27 45 66 80 85 80 69 58 50 47 46 43 39 35 30 28 28 29 26 18 10 5 1 0 0 0 0 0 0 0 0 0 0 0 0 0 0 0 0
0 0 0 0 0 2 6 11 13 18 31 53 72 79 80 77 67 54 44 40 37 33 31 29 26 25 24 23 19 13 7 4 1 0 0 0 0 0 0 0 0 0 0 0 0 0 0 0 0
0 0 0 0 0 1 3 6 10 21 38 56 68 72 72 70 61 49 40 33 28 24 21 21 21 21 20 18 13 8 4 2 1 0 0 0 0 0 0 0 0 0 0 0 0 0 0 0 0
0 0 0 0 0 0 1 2 9 25 42 53 60 63 61 57 50 42 34 28 22 18 16 15 16 17 17 15 10 5 3 1 0 0 0 0 0 0 0 0 0 0 0 0 0 0 0 0 0
0 0 0 0 0 0 0 1 10 26 40 48 53 54 50 45 40 35 31 25 18 14 11 11 12 14 14 12 8 4 2 1 0 0 0 0 0 0 0 0 0 0 0 0 0 0 0 0 0
0 0 0 0 0 0 0 1 9 24 36 41 44 43 40 36 33 31 29 25 18 11 8 7 9 11 11 9 6 3 2 1 0 0 0 0 0 0 0 0 0 0 0 0 0 0 0 0 0
0 0 0 0 0 0 0 1 8 20 30 34 34 33 30 27 26 26 25 23 19 13 8 6 7 8 8 6 4 3 3 2 1 0 0 0 0 0 0 0 0 0 0 0 0 0 0 0 0
0 0 0 0 0 0 0 1 5 13 20 24 26 27 25 22 21 21 21 21 20 15 10 8 8 9 8 6 5 3 3 2 1 0 0 0 0 0 0 0 0 0 0 0 0 0 0 0 0
0 0 0 0 0 0 0 0 2 5 8 12 17 21 22 20 20 21 20 18 15 13 10 9 9 9 8 7 5 3 2 1 1 1 0 0 0 0 0 0 0 0 0 0 0 0 0 0 0
0 0 0 0 0 0 0 0 0 0 1 4 8 13 16 18 21 22 18 14 11 10 8 7 7 7 8 7 5 3 3 2 2 2 1 0 0 0 0 0 0 0 0 0 0 0 0 0 0
0 0 0 0 0 0 0 0 0 0 0 1 3 5 8 14 19 20 15 10 8 7 6 5 6 6 7 7 5 3 3 3 3 3 1 0 0 0 0 0 0 0 0 0 0 0 0 0 0
0 0 0 0 0 0 0 0 0 0 0 0 0 1 3 9 13 14 11 8 7 7 5 4 5 6 7 7 5 4 3 3 3 3 2 1 0 0 0 0 0 0 0 0 0 0 0 0 0
0 0 0 0 0 0 0 0 0 0 0 0 0 0 1 4 7 9 9 8 8 8 6 5 5 6 7 7 5 3 3 3 3 3 3 1 0 0 0 0 0 0 0 0 0 0 0 0 0
0 0 0 0 0 0 0 0 0 0 0 0 0 0 0 2 4 6 6 7 8 8 7 7 7 7 7 6 4 3 3 3 3 3 3 2 1 0 0 0 0 0 0 0 0 0 0 0 0
0 0 0 0 0 0 0 0 0 0 0 0 0 0 0 0 2 3 4 4 5 6 7 7 7 7 6 6 5 4 3 3 3 3 3 2 1 0 0 0 0 0 0 0 0 0 0 0 0
0 0 0 0 0 0 0 0 0 0 0 0 0 0 0 0 0 1 1 2 3 4 5 6 6 6 6 5 5 4 3 3 3 3 3 2 1 0 0 0 0 0 0 0 0 0 0 0 0
0 0 0 0 0 0 0 0 0 0 0 0 0 0 0 0 0 0 0 1 1 2 4 6 7 7 6 6 5 4 2 1 2 3 2 1 0 0 0 0 0 0 0 0 0 0 0 0 0
0 0 0 0 0 0 0 0 0 0 0 0 0 0 0 0 0 0 0 0 0 2 5 7 9 8 7 6 6 4 1 0 1 2 1 0 0 0 0 0 0 0 0 0 0 0 0 0 0
Wind_Speed
4 3 2 1 3 4 2 3 2 2 1 1 3 4 5 4 4 3 2 11 16 15 13 16 18 18 17 17 17 16 16 16 15 15 15 14 14 13 13 12 12 11 12 12 12 12 12 11 11
3 3 1 2 4 2 4 3 3 3 3 3 2 2 3 2 3 6 6 10 17 16 11 13 19 18 18 17 17 16 15 15 15 14 14 13 13 12 12 12 11 11 11 11 11 11 11 11 11
3 2 3 3 2 3 4 3 3 2 4 3 2 2 2 3 6 7 7 14 15 13 11 14 20 18 18 17 16 16 15 15 14 13 13 13 12 12 11 11 11 11 11 11 11 11 10 10 9
2 3 4 3 2 5 5 4 3 5 2 1 3 2 1 1 6 7 14 16 15 12 11 14 20 19 18 17 16 16 15 15 14 13 12 12 11 11 11 11 10 10 10 10 10 10 9 9 8
3 4 4 2 5 6 5 5 6 6 4 3 4 3 0 3 7 14 16 17 16 12 9 12 20 19 18 17 16 16 15 15 14 13 12 11 10 10 10 10 10 9 9 9 9 8 8 7 7
4 4 3 2 6 5 3 4 6 4 3 4 5 3 0 2 10 14 14 13 13 13 10 11 19 19 18 17 16 16 15 14 14 13 12 11 10 10 9 9 9 8 8 8 8 7 7 6 5
4 4 1 3 5 4 2 3 6 5 4 6 7 5 1 4 8 13 12 11 10 11 10 9 10 13 17 17 16 15 14 14 13 12 11 10 10 9 9 8 8 7 7 7 6 6 5 5 4
4 4 1 3 4 4 1 1 2 5 4 4 7 7 6 7 9 11 10 9 9 8 9 8 8 8 8 10 15 15 14 13 12 12 11 10 9 9 8 7 6 6 6 5 5 5 4 4 4
4 4 2 4 4 4 1 0 1 2 4 4 3 4 5 15 15 13 11 9 10 10 7 7 8 7 7 7 11 12 13 12 11 9 11 8 4 3 4 5 5 5 5 4 3 4 4 4 3
4 3 7 6 5 4 4 3 4 3 3 3 2 3 13 18 17 17 17 16 15 14 10 7 8 8 7 7 6 4 5 5 4 3 4 4 3 2 3 2 5 4 4 3 3 3 4 3 2
5 7 6 6 6 5 4 3 4 7 5 8 9 11 18 19 17 16 16 15 14 13 12 9 8 8 7 4 5 3 3 3 3 4 4 4 3 2 2 2 1 2 3 2 3 3 2 2 1
5 8 6 6 4 3 4 3 3 7 8 6 10 17 20 20 18 17 15 13 11 12 12 9 9 8 6 5 5 4 3 3 3 3 4 4 2 2 2 1 1 2 1 2 2 1 2 2 2
5 6 5 7 8 5 4 4 4 4 3 4 11 16 19 17 15 11 10 10 10 11 11 11 10 9 6 5 5 5 4 4 3 3 3 4 3 3 2 2 1 1 1 1 1 1 2 2 2
4 6 7 7 5 2 2 1 1 3 3 8 11 13 14 14 13 11 10 10 10 11 11 10 11 9 7 5 4 4 4 4 3 3 4 4 3 3 3 2 2 1 1 1 1 2 2 2 2
4 6 8 4 2 1 2 2 3 2 7 9 10 11 10 10 11 13 13 11 11 10 9 10 9 9 8 7 6 4 4 4 3 3 4 4 4 4 4 3 2 1 2 2 2 3 2 2 2
4 4 5 7 4 2 2 5 4 2 8 8 9 9 9 8 10 10 11 9 9 9 10 11 10 9 8 6 5 4 4 4 3 3 3 4 5 5 4 3 2 2 2 2 2 2 3 2 2
5 4 5 8 3 1 1 5 4 2 7 8 8 9 8 7 7 8 10 10 10 10 10 10 9 10 9 7 5 5 4 4 3 3 3 4 5 5 4 3 2 3 2 2 2 2 2 2 2
3 4 5 7 6 2 2 4 3 2 6 7 7 6 7 7 8 8 9 9 9 9 8 9 9 8 8 6 4 3 4 3 3 3 4 5 4 5 5 3 3 3 3 2 2 3 3 2 2
3 4 9 10 5 1 3 4 4 1 3 5 5 6 6 5 4 5 6 8 9 9 9 9 9 8 7 6 5 4 4 3 3 3 5 5 5 6 5 4 4 3 3 2 3 2 3 3 2
4 5 8 8 3 1 2 4 2 1 2 4 6 7 6 5 5 6 6 7 8 9 9 9 10 9 9 6 5 3 4 3 3 3 4 5 5 5 5 5 4 3 3 3 2 2 2 2 2
5 5 6 6 3 3 2 5 2 1 1 2 4 5 6 8 8 8 7 8 8 9 9 9 9 9 8 7 5 5 4 3 3 3 2 3 5 5 5 5 4 4 3 3 2 2 3 3 2
6 5 5 3 1 3 2 4 6 2 2 3 4 5 6 6 7 7 8 8 9 9 8 8 8 8 8 9 8 9 6 5 4 4 3 3 4 4 5 5 5 4 3 3 2 2 2 3 2
6 0 1 1 2 1 2 1 8 1 3 4 5 5 6 7 8 8 9 9 8 8 8 8 8 8 8 8 9 8 6 4 4 4 5 3 3 3 5 5 5 4 3 3 3 3 2 2 3
3 5 5 5 4 2 2 1 8 4 5 4 4 5 6 7 7 7 6 6 6 7 7 8 9 8 8 9 8 8 8 7 7 5 5 4 2 2 4 5 4 4 4 4 4 3 3 3 3
4 5 4 5 4 5 2 2 10 7 5 5 6 6 6 7 7 7 7 7 8 9 9 9 10 8 9 9 8 8 8 9 9 7 7 5 3 3 4 5 5 4 4 4 4 3 3 3 3
5 9 8 5 5 5 2 5 9 4 3 3 4 4 5 6 7 8 8 8 8 9 9 9 10 9 9 9 8 7 8 6 5 7 6 7 5 5 5 6 6 5 5 5 4 3 3 3 3
6 5 6 7 2 2 5 7 10 2 2 2 2 3 5 6 7 8 8 7 8 8 9 9 10 8 8 8 8 7 8 7 7 7 6 6 5 5 6 6 6 6 6 5 5 3 3 3 3
5 8 6 6 5 3 5 5 6 5 4 3 3 3 5 6 6 7 7 7 7 8 8 8 9 9 8 8 8 7 7 8 7 7 8 7 6 5 6 7 6 6 6 6 5 4 3 4 3
3 4 5 5 5 6 4 9 7 7 4 4 4 4 6 7 8 7 7 7 6 6 7 8 8 7 7 8 7 6 7 7 7 7 7 7 6 7 7 7 7 7 7 6 6 5 5 5 4
4 6 8 6 5 5 4 10 4 3 3 3 3 3 4 6 7 7 7 6 6 7 7 8 8 8 8 7 6 6 6 7 8 8 7 7 7 7 7 7 7 8 7 7 7 7 7 7 6
Wind_Direction
199 155 128 98 58 45 288 255 210 195 214 224 149 145 151 164 181 206 119 142 138 145 152 153 149 144 140 136 132 130 129 128 126 126 126 126 125 124 122 120 117 115 112 110 108 107 106 106 107
133 142 111 69 79 26 284 247 211 202 179 146 115 115 121 167 116 121 133 145 141 145 148 151 151 147 144 140 137 134 132 131 130 129 130 129 127 126 125 121 118 116 114 112 110 108 107 107 108
146 148 94 75 112 198 250 239 208 160 154 153 135 97 146 173 147 150 154 145 141 145 147 156 153 150 147 144 141 139 137 136 135 134 134 132 130 128 125 122 120 117 115 114 112 110 108 108 109
121 64 60 71 250 236 232 235 181 149 180 166 138 130 116 101 153 153 145 145 143 146 149 159 155 153 150 148 146 144 142 141 139 137 135 134 132 129 125 123 120 117 116 114 112 111 109 108 108
72 80 56 356 268 257 240 219 174 172 184 164 150 154 90 17 121 138 146 149 148 147 152 160 157 155 154 152 151 148 147 144 143 141 140 137 134 132 128 125 122 118 116 114 113 110 106 104 103
62 67 71 294 280 275 261 186 159 173 164 151 150 145 246 105 135 146 148 150 150 150 152 157 159 157 157 156 154 152 151 148 147 147 145 141 138 135 132 127 124 122 118 115 113 109 102 96 95
109 102 178 252 278 286 255 152 159 163 174 183 159 143 193 156 154 147 144 142 145 150 151 153 157 159 160 159 157 156 154 152 151 150 148 146 144 141 138 134 130 127 124 120 115 107 97 86 81
131 106 263 262 258 268 237 123 171 163 184 150 144 161 195 176 149 137 133 135 143 150 152 149 148 150 153 158 161 160 158 157 156 155 153 153 151 148 144 139 141 136 131 126 116 102 90 76 72
108 80 246 237 231 261 256 143 208 146 133 150 182 190 175 144 143 141 142 144 154 159 156 150 147 143 142 150 166 162 161 162 161 159 159 150 123 120 132 145 151 147 140 129 115 100 89 74 61
114 166 233 224 215 241 264 239 197 151 159 182 160 117 135 147 156 160 164 165 167 168 166 157 151 147 147 160 152 143 146 149 141 133 134 116 112 122 129 153 155 146 133 118 100 86 72 69 44
173 211 244 252 237 236 244 238 182 155 204 208 192 163 153 160 167 171 173 173 172 167 167 163 156 151 152 148 141 132 125 127 129 132 127 121 112 100 91 77 74 63 80 56 51 50 49 60 67
204 247 245 270 260 247 225 201 187 189 220 214 177 158 159 170 177 178 174 172 166 167 170 163 160 154 153 145 144 139 138 140 142 142 136 129 123 115 106 93 78 64 62 70 51 41 36 50 58
230 264 258 256 277 250 217 202 198 233 255 129 141 153 165 173 176 171 169 167 166 173 174 168 164 160 156 146 152 152 151 152 150 145 145 142 139 137 123 107 97 90 83 82 62 49 50 49 46
256 271 283 285 280 244 171 235 156 251 130 125 141 158 168 170 167 165 172 174 178 180 178 170 168 165 158 155 154 153 153 149 146 149 152 147 142 140 134 121 112 101 98 90 87 80 78 60 54
299 312 321 317 325 311 106 327 255 204 133 137 150 158 164 170 169 176 179 179 182 181 174 173 173 165 161 160 162 156 154 148 152 153 151 148 145 144 137 129 125 115 102 94 79 68 65 66 60
357 13 332 307 337 339 119 268 279 157 140 145 155 162 168 178 182 181 175 176 179 176 177 178 178 169 165 164 163 154 154 150 151 150 146 146 146 140 132 132 131 126 109 97 93 73 67 58 67
23 357 306 306 320 352 140 255 282 153 147 155 166 169 175 179 185 183 180 176 177 179 178 179 174 170 167 164 156 151 146 144 145 144 142 146 144 141 133 132 125 119 104 91 98 70 78 75 68
297 309 297 292 300 337 295 265 285 185 166 168 167 171 181 184 186 179 177 172 170 173 174 177 171 168 161 150 132 125 126 132 137 145 147 143 140 139 131 124 122 118 106 89 82 85 67 68 65
244 270 281 280 294 312 274 275 291 220 166 169 174 183 192 188 160 155 168 168 164 169 175 177 172 165 156 150 150 150 152 145 141 149 145 143 141 140 133 128 122 121 118 118 116 100 82 59 48
232 276 283 296 350 57 293 284 296 194 204 194 190 191 192 175 164 167 168 171 171 174 175 177 174 168 164 162 154 143 130 129 130 129 131 142 142 143 144 140 138 135 119 109 108 111 104 67 48
254 233 260 276 329 19 351 314 295 282 248 200 197 193 192 188 180 177 176 176 175 180 179 178 171 165 160 148 128 114 95 91 103 118 136 148 148 149 144 147 140 141 134 137 133 130 127 119 58
266 243 237 253 346 308 19 294 291 268 278 232 216 200 197 192 181 180 179 179 182 183 174 168 164 165 157 150 152 153 155 157 167 157 153 143 148 151 150 149 145 145 141 142 148 135 132 132 127
223 64 88 78 134 337 359 243 287 310 264 248 229 211 197 188 181 183 186 183 180 175 171 168 163 166 160 161 162 160 154 144 132 131 140 143 146 155 156 153 149 150 150 150 145 136 134 133 142
164 71 53 51 67 324 285 201 281 249 233 245 228 213 198 183 174 173 176 164 160 164 167 165 167 171 165 164 164 166 159 149 145 150 156 156 149 157 165 159 157 158 158 161 159 152 145 136 132
123 94 24 353 1 259 265 234 253 251 230 218 218 214 195 181 172 167 168 167 166 167 169 168 169 172 169 168 171 174 169 163 165 165 169 166 167 180 187 172 168 168 173 168 157 155 158 154 149
178 146 162 204 231 275 301 246 256 251 235 217 206 194 177 175 173 176 176 171 171 170 168 168 171 171 171 173 177 175 172 169 172 172 171 180 187 188 181 180 179 179 173 170 163 161 170 164 164
150 181 165 138 159 269 279 282 298 246 200 193 179 168 185 183 177 178 173 169 170 169 168 169 167 168 174 176 174 177 177 175 178 176 177 183 186 183 179 182 182 183 177 173 167 174 177 167 174
152 146 111 127 154 240 284 276 259 260 225 185 185 191 191 179 172 175 176 174 173 173 166 163 166 172 172 173 178 183 183 184 179 176 183 185 186 181 176 184 185 184 181 176 173 176 178 173 181
124 119 119 125 155 164 243 268 232 227 215 200 205 203 184 178 177 176 178 177 169 163 161 166 171 168 170 178 181 179 183 185 179 183 190 188 181 180 184 188 186 187 185 180 181 189 182 185 191
178 172 151 157 206 178 186 263 274 216 211 195 203 201 180 171 172 171 168 163 163 168 171 177 179 180 182 178 177 184 184 181 185 191 194 188 185 187 190 187 188 192 191 186 190 198 193 194 199